map of MNI home
MNI - Airport
Location
City:  Gerald's Park, Montserrat
Name:John A. Osborne Airport
Old (Alt.):Gerald's Airport
ICAO:TRPG
IATA:MNI

Details
Type:Airport (Aerodrome, Airfield)
Latitude:1647'29"N (16.791389)
Longitude:6211'36"W (-62.193332)
Elevation:551 ft (168 m)
Variation:14.65W (WMM2015 magnetic declination)
-0.03 annual change
Runways:1
Longest:1814 × 59 ft (553 × 18 m)

Time
Time Zone:UTC-4
Local Time:

Weather
METAR:TRPG 212200Z 11013KT 9999 SCT014 27/25 Q1017
TAF:TRPG 211700Z 2118/2218 09012KT 9999 SCT022 PROB30
TEMPO 2122/2210 SHAR

Related Locations
Nearby:
Farthest:PHE: 12178 mi / 19599 km
Port Hedland, WA, AU

Find:

   beyond  
but within

Other Information
Maps:
NOTAMs:
Links:
Sources:

  
  • flag of Montserrat
  

Sectional Chart

Flight Planning
at skyvector.com

Satellite Image

Google Maps Satellite view

 

Copyright © 2004-2018 Karl L. Swartz. All rights reserved.
The Great Circle Mapper name and logo are trademarks of the Great Circle Mapper.
All other trademarks mentioned herein belong to their respective owners.
Please see credits for attibutions and further copyright information.

  Follow gcmap on Facebook Follow gcmap on Twitter Follow gcmap on Google+ GCmap on LinkedIn

hCard Microformat

Geo Microformat